Weather observations for the past three days for
Akhiok
| Date | Time (akdt) | Wind (kph) | Vis. (km) | Weather | Sky Cond. | Temperature (ºC) | Relative Humidity | Wind Chill (°C) | Heat Index (°C) | Pressure | Precipitation (cm) | ||||||
|---|---|---|---|---|---|---|---|---|---|---|---|---|---|---|---|---|---|
| Air | Dwpt | 6 hour | altimeter (cm) | sea level (mb) | 1 hr | 3 hr | 6 hr | ||||||||||
| Max. | Min. | ||||||||||||||||
| 08 | 03:56 | NE 11 | 0.00 | Overcast | OVC027 | 0 | 0 | 0% | 75.59 | 0.0 | |||||||
| 08 | 02:56 | NE 7 | 0.00 | Overcast | OVC029 | 0 | 0 | 0% | 75.64 | 0.0 | |||||||
| 08 | 01:56 | NE 7 | 0.00 | Mostly Cloudy | BKN031 | 0 | 0 | 0% | 75.69 | 0.0 | |||||||
| 08 | 00:56 | NE 13 | 0.00 | Overcast | OVC041 | 0 | 0 | 0% | 75.74 | 0.0 | |||||||
| 07 | 23:56 | NE 15 | 0.00 | Overcast | OVC039 | 0 | 0 | 0% | 75.79 | 0.0 | |||||||
| 07 | 22:56 | E 15 | 0.00 | Mostly Cloudy | BKN040 | 0 | 0 | 0% | 75.84 | 0.0 | |||||||
| 07 | 21:56 | E 26 G 35 | 0.00 | Overcast | OVC038 | 0 | 0 | 0% | 75.87 | 0.0 | |||||||
| 07 | 20:56 | E 22 | 0.00 | Mostly Cloudy | BKN038 | 0 | 0 | 0% | 75.9 | 0.0 | |||||||
| 07 | 19:56 | E 17 | 0.00 | Mostly Cloudy | BKN042 | 0 | 0 | 0% | 75.92 | 0.0 | |||||||
| 07 | 18:56 | E 11 | 0.00 | Mostly Cloudy | BKN040 | 0 | 0 | 0% | 75.95 | 0.0 | |||||||
| 07 | 17:56 | E 17 | 0.00 | Mostly Cloudy | BKN038 | 0 | 0 | 0% | 75.97 | 0.0 | |||||||
| 07 | 16:56 | SE 17 | 0.00 | A Few Clouds | FEW038 | 0 | 0 | 0% | 76.05 | 0.0 | |||||||
| 07 | 15:56 | SE 22 | 0.00 | Mostly Cloudy | BKN039 | 0 | 0 | 0% | 76.1 | 0.0 | |||||||
| 07 | 14:56 | SE 13 | 0.00 | Overcast | OVC037 | 0 | 0 | 0% | 76.15 | 0.0 | |||||||
| 07 | 13:56 | Vrbl 9 | 0.00 | Overcast | OVC035 | 0 | 0 | 0% | 76.17 | 0.0 | |||||||
| 07 | 12:56 | Vrbl 6 | 0.00 | Mostly Cloudy | BKN035 | 0 | 0 | 0% | 76.23 | 0.0 | |||||||
| 07 | 11:56 | E 7 | 0.00 | Overcast | OVC031 | 0 | 0 | 0% | 76.25 | 0.0 | |||||||
| 07 | 10:56 | Vrbl 6 | 0.00 | Overcast | OVC025 | 0 | 0 | 0% | 76.25 | 0.0 | |||||||
| 07 | 09:56 | SE 6 | 0.00 | Overcast | OVC023 | 3.3 | 0 | 79% | 76.3 | 0.0 | |||||||
| 07 | 08:56 | NE 7 | 0.00 | Mostly Cloudy | BKN027 | 1.7 | -0.6 | 85% | -0 | 76.33 | 0.0 | ||||||
| 07 | 07:56 | N 6 | 0.00 | Partly Cloudy | FEW002 SCT029 | 0 | -1.1 | 92% | 76.33 | 0.0 | |||||||
| 07 | 06:56 | Calm | 0.00 | Fair | CLR | 0 | 0 | 0% | 76.33 | 0.0 | |||||||
| 07 | 05:56 | Calm | 0.00 | Partly Cloudy | SCT020 | 0 | 0 | 0% | 76.35 | 0.0 | |||||||
| 07 | 04:56 | NW 9 | 0.00 | Overcast | OVC020 | 0 | 0 | 0% | 76.38 | 0.0 | |||||||
| 07 | 03:56 | NW 9 | 0.00 | Overcast | OVC020 | 0 | 0 | 0% | 76.38 | 0.0 | |||||||
| 07 | 02:56 | NW 9 | 0.00 | Overcast | OVC020 | 0 | 0 | 0% | 76.43 | 0.0 | |||||||
| 07 | 01:56 | NW 7 | 0.00 | Overcast | OVC018 | 0 | 0 | 0% | 76.43 | 0.0 | |||||||
| 07 | 00:56 | NW 9 | 0.00 | Mostly Cloudy | BKN016 | 0 | 0 | 0% | 76.45 | 0.0 | |||||||
| 06 | 23:56 | NW 13 | 0.00 | Fair | CLR | 0 | 0 | 0% | 76.43 | 0.0 | |||||||
| 06 | 22:56 | W 19 | 0.00 | Fair | CLR | 0 | 0 | 0% | 76.43 | 0.0 | |||||||
| 06 | 21:56 | W 24 | 0.00 | Fair | CLR | 0 | 0 | 0% | 76.4 | 0.0 | |||||||
| 06 | 20:56 | W 20 | 0.00 | Fair | CLR | 0 | 0 | 0% | 76.38 | 0.0 | |||||||
| 06 | 19:56 | W 28 | 0.00 | Fair | CLR | 0 | 0 | 0% | 76.4 | 0.0 | |||||||
| 06 | 18:56 | W 28 | 0.00 | Fair | CLR | 0 | 0 | 0% | 76.4 | 0.0 | |||||||
| 06 | 17:56 | W 28 | 0.00 | Fair | CLR | 0 | 0 | 0% | 76.4 | 0.0 | |||||||
| 06 | 16:56 | W 28 | 0.00 | Fair | CLR | 0 | 0 | 0% | 76.4 | 0.0 | |||||||
| 06 | 15:56 | W 30 G 44 | 0.00 | A Few Clouds | FEW024 | 0 | 0 | 0% | 76.4 | 0.0 | |||||||
| 06 | 14:56 | W 35 G 46 | 0.00 | Fair and Breezy | CLR | 0 | 0 | 0% | 76.4 | 0.0 | |||||||
| 06 | 13:56 | W 20 G 33 | 0.00 | Fair | CLR | 0 | 0 | 0% | 76.4 | 0.0 | |||||||
| 06 | 12:56 | NW 19 | 0.00 | Fair | CLR | 0 | 0 | 0% | 76.35 | 0.0 | |||||||
| 06 | 11:56 | NW 17 | 0.00 | Fair | CLR | 0 | 0 | 0% | 76.33 | 0.0 | |||||||
| 06 | 10:56 | NW 26 G 31 | 0.00 | Fair | CLR | 0 | 0 | 0% | 76.3 | 0.0 | |||||||
| 06 | 09:56 | NW 19 | 0.00 | Partly Cloudy | SCT021 | 0 | 0 | 0% | 76.3 | 0.0 | |||||||
| 06 | 08:56 | NW 11 | 0.00 | Partly Cloudy | SCT019 | 0 | 0 | 0% | 76.28 | 0.0 | |||||||
| 06 | 07:56 | Vrbl 9 | 0.00 | Overcast | OVC021 | 0 | 0 | 0% | 76.23 | 0.0 | |||||||
| 06 | 06:56 | NW 11 | 0.00 | Mostly Cloudy | FEW025 BKN036 | 0 | 0 | 0% | 76.2 | 0.0 | |||||||
| 06 | 05:56 | NW 20 | 0.00 | Overcast | OVC030 | 0 | 0 | 0% | 76.17 | 0.0 | |||||||
| 06 | 04:56 | NW 15 | 0.00 | Overcast | BKN012 OVC030 | 0 | 0 | 0% | 76.17 | 0.0 | |||||||
| 06 | 03:56 | NW 11 | 0.00 | Overcast | BKN032 OVC085 | 0 | 0 | 0% | 76.15 | 0.0 | |||||||
| 06 | 02:56 | NW 19 G 31 | 0.00 | Overcast | FEW013 OVC085 | 0 | 0 | 0% | 76.12 | 0.0 | |||||||
| 06 | 01:56 | Vrbl 6 | 0.00 | Overcast | OVC080 | 0 | 0 | 0% | 76.1 | 0.0 | |||||||
| 06 | 00:56 | Vrbl 7 | 0.00 | Overcast | SCT016 OVC080 | 0 | 0 | 0% | 76.05 | 0.0 | |||||||
| 05 | 23:56 | NW 17 | 0.00 | Overcast | BKN038 OVC075 | 0 | 0 | 0% | 76.02 | 0.0 | |||||||
| 05 | 22:56 | NW 13 | 0.00 | Overcast | FEW060 OVC075 | 0 | 0 | 0% | 75.97 | 0.0 | |||||||
| 05 | 21:56 | W 9 | 0.00 | Overcast | OVC060 | 0 | 0 | 0% | 75.95 | 0.0 | |||||||
| 05 | 20:56 | Vrbl 9 | 0.00 | Overcast | OVC080 | 0 | 0 | 0% | 75.9 | 0.0 | |||||||
| 05 | 19:56 | NW 46 G 61 | 0.00 | Partly Cloudy and Windy | SCT120 | 0 | 0 | 0% | 75.79 | 0.0 | |||||||
| 05 | 18:56 | NW 44 G 69 | 0.00 | Mostly Cloudy and Windy | BKN009 | 0 | 0 | 0% | 75.74 | 0.0 | |||||||
| 05 | 17:56 | NW 33 G 52 | 0.00 | Overcast and Breezy | BKN009 OVC014 | 0 | 0 | 0% | 75.77 | 0.0 | |||||||
| 05 | 16:56 | W 31 G 48 | 0.00 | Overcast | OVC014 | 0 | 0 | 0% | 75.72 | 0.0 | |||||||
| 05 | 15:56 | W 20 G 31 | 0.00 | Overcast | BKN021 OVC027 | 0 | 0 | 0% | 75.69 | 0.0 | |||||||
| 05 | 14:56 | NW 15 G 35 | 0.00 | Overcast | FEW018 OVC023 | 0 | 0 | 0% | 75.64 | 0.0 | |||||||
| 05 | 13:56 | W 22 | 0.00 | Overcast | FEW025 BKN045 OVC055 | 0 | 0 | 0% | 75.62 | 0.0 | |||||||
| 05 | 12:56 | W 26 | 0.00 | Overcast | BKN013 BKN037 OVC060 | 0 | 0 | 0% | 75.57 | 0.0 | |||||||
| 05 | 11:56 | W 15 | 0.00 | Overcast | OVC036 | 0 | 0 | 0% | 75.49 | 0.0 | |||||||
| 05 | 10:56 | W 20 G 26 | 0.00 | Overcast | OVC012 | 0 | 0 | 0% | 75.44 | 0.0 | |||||||
| 05 | 09:56 | W 20 | 0.00 | Overcast | OVC010 | 0 | 0 | 0% | 75.39 | 0.0 | |||||||
| 05 | 08:56 | W 19 | 0.00 | Overcast | OVC008 | 0 | 0 | 0% | 75.34 | 0.0 | |||||||
| 05 | 07:56 | W 13 | 0.00 | Overcast | OVC008 | 0 | 0 | 0% | 75.26 | 0.0 | |||||||
| 05 | 06:56 | W 15 | 0.00 | Overcast | OVC008 | 0 | 0 | 0% | 75.21 | 0.0 | |||||||
| 05 | 05:56 | NW 13 | 0.00 | Overcast | BKN010 OVC015 | 0 | 0 | 0% | 75.13 | 0.0 | |||||||
| 05 | 04:56 | NW 24 G 37 | 0.00 | Overcast | SCT028 BKN036 OVC070 | 0 | 0 | 0% | 75.06 | 0.0 | |||||||
| Date | Time (akdt) | Wind (kph) | Vis. (km) | Weather | Sky Cond. | Air | Dwpt | Max. | Min. | Relative Humidity | Wind Chill (°C) | Heat Index (°C) | altimeter (cm) | sea level (mb) | 1 hr | 3 hr | 6 hr |
| 6 hour | |||||||||||||||||
| Temperature (ºC) | Pressure | Precipitation (cm) | |||||||||||||||